Weather in Kolymbia

Greece     36°15′26″N   28°08′39″E
temp.,
°C
wind,
m/s
gust,
m/s
humid.,
%
clouds,
%
prec.,
mm/h
press.,
hPa
HPBL,
m
17 september, fri
fri1700:00+26nw810580 0.0 1012381
03:00+26nnw810570 0.0 1012479
06:00+25nnw68570 0.0 1012407
09:00+25nnw66520 0.0 1012512
12:00+27n45440 0.0 1012649
15:00+29nw24390 0.0 1011303
18:00+28w57440 0.0 1011175
21:00+25nw611620 0.0 1012362
18 september, sat
sat1800:00+25nnw58650 0.0 1013276
03:00+24nnw47660 0.0 1012260
06:00+24nw34640 0.0 1012195
09:00+26nw22550 0.0 1012210
12:00+28s22500 0.0 1013259
15:00+29sw13500 0.0 1012254
18:00+30nw34510 0.0 101183
21:00+27wnw11640 0.0 101232
19 september, sun
sun1900:00+26wnw33640 0.0 101257
03:00+26nw34640 0.0 101279
06:00+26nw33630 0.0 101268
09:00+27nw22610 0.0 101360
12:00+29sse21560 0.0 1014200
15:00+31w14530 0.0 1012239
18:00+31wnw57440 0.0 1012101
21:00+27wnw58570 0.0 101396
20 september, mon
mon2000:00+27nw34600 0.0 101352
03:00+26nw22650 0.0 101327
06:00+26wnw22660 0.0 101257
09:00+27wnw11630 0.0 101363
12:00+29sse22540 0.0 1014206
15:00+30nne24530 0.0 1012208
18:00+30nnw12520 0.0 101272
21:00+26wnw23650 0.0 101356
21 september, tue
tue2100:00+26wnw33650 0.0 101370
03:00+25wnw33740 0.0 1012103
06:00+24wnw23770 0.0 1012101
09:00+25wnw22700 0.0 1013181
12:00+28s11590 0.0 1013206
15:00+30w13570 0.0 1012167
18:00+30nw6950100 0.0 1011129
21:00+26nw510690 0.0 1012195